#timestamp,LO_Frequency,Hit,StdDev 
1524211215.2,286046998.8,N
1524211235.0,286046997.0,N
1524211235.9,286046997.0,N
1524211255.8,286046997.9,N
1524211275.6,286046995.1,Y
1524211295.4,286046995.3,P
1524211315.3,286046995.2,N
1524211335.1,286046995.9,N
1524211355.8,286046997.5,N
1524211375.7,286046996.9,N
1524211395.5,286046997.2,N
1524211415.4,286046995.5,Y
1524211435.2,286046998.3,P
1524211455.0,286046998.1,N
1524211455.9,286046998.1,N
1524211475.8,286046998.8,N
1524211495.6,286046997.5,Y
1524211515.5,286046998.5,P
1524211535.3,286046999.4,N
1524211555.1,286046997.0,P
1524211575.9,286046997.2,Y
1524211595.7,286046998.9,P
1524211615.6,286047001.2,P
1524211635.4,286047002.8,N
1524211655.2,286047001.0,N
1524211675.1,286047001.2,N
1524211676.0,286047001.2,N
1524211695.8,286046998.4,N
1524211715.6,286047000.3,N
1524211735.5,286047000.6,N
1524211755.3,286046999.9,N
1524211775.2,286047002.5,N
1524211795.9,286047002.8,N
1524211815.7,286047002.6,N
1524211835.6,286047002.1,N
1524211855.4,286047002.6,N
1524211875.2,286047000.2,N
1524211895.1,286046999.9,N
1524211896.0,286046999.9,N
1524211915.8,286047002.6,N
1524211935.7,286047003.8,N
1524211955.5,286047005.8,Y
1524211975.3,286047003.6,P
1524211995.2,286047006.0,P
1524212015.0,286047001.7,N
1524212015.9,286047001.7,N
1524212035.8,286047004.2,N
1524212055.6,286047002.4,N
1524212075.4,286046999.7,N
1524212095.3,286047002.3,N
1524212115.1,286047000.2,N
1524212135.8,286046999.9,N
1524212155.7,286047002.6,N
1524212175.5,286047002.4,N
1524212195.4,286047000.4,N
1524212215.2,286047000.4,N
1524212235.0,286046999.8,N
1524212235.9,286046999.8,N
1524212255.8,286046999.7,N
1524212275.6,286047002.3,N
1524212295.5,286047002.0,N
1524212315.3,286047000.1,N
1524212335.1,286047000.7,N
1524212355.9,286046999.9,N
1524212375.7,286047001.1,N
1524212395.6,286047000.8,N
1524212415.4,286046998.8,N
1524212435.2,286046998.8,N
1524212455.1,286046999.5,N
1524212456.0,286046999.5,N
1524212475.8,286047001.2,N
1524212495.6,286046998.1,N
1524212515.5,286047000.9,N
1524212535.3,286047000.6,N
1524212555.2,286047000.7,N
1524212575.9,286046998.3,N
1524212595.7,286046998.7,N
1524212615.6,286047000.2,N
1524212635.4,286047000.6,N
1524212655.3,286047000.9,N
1524212675.1,286046998.3,N
1524212676.0,286046998.3,N
1524212695.8,286046997.3,N
1524212715.7,286046997.9,N
1524212735.5,286046998.0,N
1524212755.3,286046996.1,Y
1524212775.2,286046994.9,P
1524212795.0,286046996.0,N
1524212795.9,286046996.0,N
1524212815.8,286046995.2,N
1524212835.6,286046995.7,N
1524212855.4,286046996.2,N
1524212875.3,286046995.0,Y
1524212895.1,286047000.9,P
1524212915.9,286046999.0,N
1524212935.7,286046998.3,N
1524212955.5,286046998.8,N
1524212975.4,286046998.3,N
1524212995.2,286047000.7,N
1524213015.0,286047000.8,N
1524213015.9,286047000.8,N
1524213035.8,286047000.8,N
1524213055.6,286047000.7,N
1524213075.5,286047000.8,N
1524213095.3,286047000.8,N
1524213115.1,286046999.3,N
1524213135.9,286047000.9,N
1524213155.7,286046999.4,N
1524213175.5,286046999.2,N
1524213195.4,286047001.2,N
1524213215.2,286046998.1,N
1524213235.1,286046998.3,N
1524213236.0,286046998.3,N
1524213255.8,286046999.3,N
1524213275.6,286046995.4,Y
1524213295.5,286046996.8,P
1524213315.3,286046999.3,N
1524213335.1,286047000.9,N
1524213355.9,286047002.7,N
1524213375.7,286046999.9,N
1524213395.6,286047002.8,N
1524213415.4,286047002.5,N
1524213435.2,286046999.9,N
1524213455.1,286046998.5,N
1524213456.0,286046998.5,N
1524213475.8,286046998.6,N
1524213495.7,286047000.5,N
1524213515.5,286047002.1,N
1524213535.3,286047000.3,N
1524213555.2,286046998.1,N
1524213575.9,286047001.1,N
1524213595.7,286047002.7,N
1524213615.6,286047002.3,N
1524213635.4,286047011.9,Y
1524213655.3,286047001.7,P
1524213675.1,286047004.1,P
1524213676.0,286047004.1,N
1524213695.8,286047003.8,N
1524213715.7,286047004.1,N
1524213735.5,286047002.2,N
1524213755.3,286047001.8,N
1524213775.2,286047002.7,N
1524213795.0,286047002.5,N
1524213795.9,286047002.5,N
1524213815.8,286047002.8,N
1524213835.6,286047000.4,N
1524213855.4,286046999.6,N
1524213875.3,286046999.3,N
1524213895.1,286046999.3,N
1524213915.9,286046998.7,N
1524213935.7,286046998.6,N
1524213955.5,286046999.9,N
1524213975.4,286047002.2,N
1524213995.2,286047002.1,N
1524214015.0,286047002.1,N
1524214015.9,286047002.1,N
1524214035.8,286046999.9,N
1524214055.6,286047000.2,N
1524214075.5,286047002.2,N
1524214095.3,286047002.8,N
1524214115.1,286047002.7,N
1524214135.9,286046999.8,N
1524214155.7,286047000.4,N
1524214175.6,286047000.3,N
1524214195.4,286047000.9,N
1524214215.2,286047002.6,N
1524214235.1,286047002.5,N
1524214236.0,286047002.5,N
1524214255.8,286047002.1,N
1524214275.6,286047004.1,N
1524214295.5,286047005.8,Y
1524214315.3,286047005.7,P
1524214335.2,286047005.9,N
1524214355.0,286047005.9,N
1524214355.9,286047005.9,Y
1524214375.8,286046999.0,P
1524214395.6,286046999.2,N
1524214415.4,286046999.4,N
1524214435.3,286046997.8,N
1524214455.1,286046997.6,N
1524214475.8,286046997.4,N
1524214495.7,286046997.0,N
1524214515.5,286046995.1,N
1524214535.3,286046996.2,N
1524214555.2,286046993.7,N
1524214575.0,286046996.1,N
1524214575.9,286046996.1,N
1524214595.8,286046995.2,N
1524214615.6,286046995.7,N
1524214635.4,286046995.9,N
1524214655.3,286046993.3,N
1524214675.1,286046997.3,N
1524214695.9,286046995.2,N
1524214715.7,286046998.0,N
1524214735.5,286046997.2,N
1524214755.4,286046999.4,N
1524214775.2,286046999.4,N
1524214795.0,286046998.9,N
1524214795.9,286046998.9,N
